User: anonymous   Login
Location: Newark
(43.0000°N, 1.6781°W)
Time: 09:06:29
(UTC+00:00)
Language:

AO-92 - Orbit

View from above orbital plane
View from above orbital plane
View from above satellite
View from above satellite

Ground track
Ground track

The orbit data is extracted from the following two-line orbital elements,

1 43137U 18004AC  22329.73548466  .00012949  00000-0  40630-3 0  9993
2 43137  97.3547  43.6607 0008026 140.9962 219.1860 15.33137226271020
Epoch (UTC): 25 November 2022 17:39:05
Eccentricity: 0.0008026
inclination: 97.3547°
perigee height: 461 km
apogee height: 472 km
right ascension of ascending node: 43.6607°
argument of perigee: 140.9962°
revolutions per day: 15.33137226
mean anomaly at epoch: 219.1860°
orbit number at epoch: 27102

The dashed part of the orbit path shows where the satellite is in the earth's shadow,  

DLR